CW8306 Weather Reports


Display with metric or nautical units.
time (UTC)temp
F
wind
direction
speed
MPH
gust
MPH
rain 1hr
in
rain 24hr
in
rain mn
in
humidity
%
barometer
mb
20260509214234 51 323 3.0 10.0 0.00 0.00 0.00 44 1014.5
20260509213731 51 208 3.0 9.0 0.00 0.00 0.00 45 1014.5
20260509213226 51 185 3.0 8.0 0.00 0.00 0.00 43 1014.4
20260509212724 51 332 5.0 14.0 0.00 0.00 0.00 43 1014.5
20260509212221 52 197 3.0 15.0 0.00 0.00 0.00 43 1014.5
20260509211717 51 318 5.0 10.0 0.00 0.00 0.00 44 1014.3
20260509211213 52 6 3.0 10.0 0.00 0.00 0.00 44 1014.2
20260509210710 53 20 4.0 8.0 0.00 0.00 0.00 43 1014.3
20260509210208 53 45 4.0 13.0 0.00 0.00 0.00 44 1014.4
20260509205707 52 175 5.0 10.0 0.00 0.00 0.00 44 1014.3
20260509205207 52 353 7.0 10.0 0.00 0.00 0.00 46 1014.2
20260509204703 52 324 4.0 8.0 0.00 0.00 0.00 46 1014.2
20260509204159 52 21 4.0 8.0 0.00 0.00 0.00 47 1014.5
20260509203655 50 228 5.0 11.0 0.00 0.00 0.00 47 1014.3
20260509203154 51 10 7.0 13.0 0.00 0.00 0.00 46 1014.2
20260509202649 51 257 8.0 11.0 0.00 0.00 0.00 45 1014.2
20260509202144 51 1 3.0 13.0 0.00 0.00 0.00 47 1014.2
20260509201640 51 338 4.0 8.0 0.00 0.00 0.00 47 1014.3
20260509201137 51 233 4.0 10.0 0.00 0.00 0.00 47 1014.3
20260509200633 50 295 7.0 10.0 0.00 0.00 0.00 48 1014.2
20260509200128 50 304 8.0 10.0 0.00 0.00 0.00 47 1014.3
20260509195624 50 294 5.0 10.0 0.00 0.00 0.00 47 1014.2
20260509195120 51 272 3.0 7.0 0.00 0.00 0.00 46 1014.3
20260509194619 51 191 3.0 9.0 0.00 0.00 0.00 46 1014.2
20260509194117 50 17 7.0 11.0 0.00 0.00 0.00 47 1014.2
20260509193612 50 339 6.0 17.0 0.00 0.00 0.00 47 1014.3
20260509193108 50 24 3.0 16.0 0.00 0.00 0.00 47 1014.2
20260509192605 50 10 4.0 10.0 0.00 0.00 0.00 48 1014.0
20260509192100 52 84 3.0 9.0 0.00 0.00 0.00 46 1013.8
20260509191555 52 305 5.0 14.0 0.00 0.00 0.00 45 1013.9
20260509191051 52 328 5.0 9.0 0.00 0.00 0.00 47 1013.9
20260509190548 52 256 4.0 9.0 0.00 0.00 0.00 45 1014.0
20260509190046 51 249 5.0 7.0 0.00 0.00 0.00 48 1014.0
20260509185543 53 348 8.0 13.0 0.00 0.00 0.00 46 1013.8
20260509185039 52 258 1.0 11.0 0.00 0.00 0.00 47 1013.9
20260509184538 52 346 4.0 11.0 0.00 0.00 0.00 47 1014.2
20260509184033 51 356 2.0 11.0 0.00 0.00 0.00 47 1013.7
20260509183529 51 299 5.0 11.0 0.00 0.00 0.00 47 1013.8
20260509183025 51 28 4.0 9.0 0.00 0.00 0.00 48 1013.6
20260509182521 53 336 5.0 11.0 0.00 0.00 0.00 45 1013.8
20260509182019 52 97 2.0 9.0 0.00 0.00 0.00 47 1013.7
20260509181517 51 202 2.0 13.0 0.00 0.00 0.00 47 1013.6
20260509181014 51 225 5.0 9.0 0.00 0.00 0.00 48 1013.5
20260509180509 49 306 2.0 10.0 0.00 0.00 0.00 49 1013.7
20260509180008 50 315 7.0 11.0 0.00 0.00 0.00 48 1013.6
20260509175502 51 177 3.0 10.0 0.00 0.00 0.00 47 1013.5
20260509174959 51 263 4.0 7.0 0.00 0.00 0.00 46 1013.5
20260509174456 51 315 2.0 13.0 0.00 0.00 0.00 47 1013.5
20260509173950 51 313 6.0 11.0 0.00 0.00 0.00 47 1013.9
20260509173445 50 276 5.0 11.0 0.00 0.00 0.00 48 1013.4
20260509172942 49 5 5.0 13.0 0.00 0.00 0.00 50 1013.3
20260509172439 49 248 3.0 7.0 0.00 0.00 0.00 49 1013.4
20260509171934 49 277 8.0 15.0 0.00 0.00 0.00 49 1013.4
20260509171431 49 306 5.0 9.0 0.00 0.00 0.00 48 1013.3
20260509170927 50 300 5.0 7.0 0.00 0.00 0.00 47 1013.4
20260509170423 50 307 3.0 10.0 0.00 0.00 0.00 48 1013.6
20260509165919 50 356 2.0 10.0 0.00 0.00 0.00 48 1013.6
20260509165413 51 263 5.0 10.0 0.00 0.00 0.00 47 1013.3
20260509164909 50 313 6.0 9.0 0.00 0.00 0.00 47 1013.3
20260509164405 50 253 3.0 6.0 0.00 0.00 0.00 48 1013.4
20260509163901 50 251 5.0 8.0 0.00 0.00 0.00 48 1013.3
20260509163358 49 8 4.0 10.0 0.00 0.00 0.00 48 1013.3
20260509162857 49 2 5.0 16.0 0.00 0.00 0.00 49 1013.2
20260509162356 48 268 2.0 8.0 0.00 0.00 0.00 50 1013.4
20260509161852 49 242 3.0 7.0 0.00 0.00 0.00 50 1013.3
20260509161348 48 304 4.0 7.0 0.00 0.00 0.00 50 1013.3
20260509160844 49 267 3.0 9.0 0.00 0.00 0.00 50 1013.5
20260509160340 48 255 5.0 7.0 0.00 0.00 0.00 50 1013.4
20260509155835 47 327 3.0 10.0 0.00 0.00 0.00 53 1013.5
20260509155332 48 355 3.0 7.0 0.00 0.00 0.00 51 1013.5
20260509154828 47 298 6.0 8.0 0.00 0.00 0.00 52 1013.3
20260509154325 47 346 4.0 11.0 0.00 0.00 0.00 51 1013.3
20260509153822 47 53 6.0 14.0 0.00 0.00 0.00 50 1013.4
20260509153318 46 148 2.0 7.0 0.00 0.00 0.00 51 1013.2
20260509152815 46 51 5.0 13.0 0.00 0.00 0.00 50 1013.3
20260509152311 46 7 1.0 7.0 0.00 0.00 0.00 51 1013.0
20260509151809 44 352 3.0 11.0 0.00 0.00 0.00 52 1013.1
20260509151305 46 210 6.0 8.0 0.00 0.00 0.00 50 1013.1
20260509150804 46 299 3.0 14.0 0.00 0.00 0.00 52 1013.0
20260509150301 45 22 5.0 11.0 0.00 0.00 0.00 51 1013.2
20260509145758 44 66 3.0 11.0 0.00 0.00 0.00 53 1013.0
20260509145257 45 334 5.0 8.0 0.00 0.00 0.00 52 1012.9
20260509144754 44 319 5.0 10.0 0.00 0.00 0.00 53 1012.8
20260509144251 43 240 1.0 9.0 0.00 0.00 0.00 54 1012.8
20260509143748 43 133 3.0 7.0 0.00 0.00 0.00 53 1013.0
20260509143246 43 218 2.0 11.0 0.00 0.00 0.00 54 1013.1
20260509142741 45 111 5.0 8.0 0.00 0.00 0.00 55 1012.9
20260509142238 45 327 3.0 7.0 0.00 0.00 0.00 55 1012.9
20260509141734 44 324 3.0 7.0 0.00 0.00 0.00 57 1012.9
20260509141231 43 266 2.0 8.0 0.00 0.00 0.00 58 1012.9
20260509140728 43 295 4.0 11.0 0.00 0.00 0.00 58 1012.9
20260509140225 43 44 4.0 8.0 0.00 0.00 0.00 59 1012.8
20260509135722 43 348 5.0 8.0 0.00 0.00 0.00 59 1013.0
20260509135220 42 41 4.0 9.0 0.00 0.00 0.00 60 1012.8
20260509134717 42 279 2.0 6.0 0.00 0.00 0.00 61 1012.8
20260509134214 41 61 3.0 7.0 0.00 0.00 0.00 61 1012.7
20260509133711 41 294 3.0 9.0 0.00 0.00 0.00 63 1012.5
20260509133208 40 76 3.0 7.0 0.00 0.00 0.00 63 1012.7
20260509132707 40 225 3.0 8.0 0.00 0.00 0.00 64 1012.6
20260509132205 40 336 2.0 7.0 0.00 0.00 0.00 64 1012.4
20260509131701 40 216 1.0 6.0 0.00 0.00 0.00 64 1012.5
20260509131158 39 337 2.0 9.0 0.00 0.00 0.00 65 1012.7
20260509130653 39 75 5.0 7.0 0.00 0.00 0.00 66 1012.4
20260509130150 39 205 1.0 2.0 0.00 0.00 0.00 67 1012.4
20260509125646 38 197 2.0 5.0 0.00 0.00 0.00 68 1012.2
20260509125143 38 182 2.0 8.0 0.00 0.00 0.00 68 1012.3
20260509124640 38 300 1.0 6.0 0.00 0.00 0.00 69 1012.1
20260509124137 38 190 2.0 6.0 0.00 0.00 0.00 69 1012.0
20260509123635 38 4 4.0 6.0 0.00 0.00 0.00 69 1012.1
20260509123131 37 4 3.0 3.0 0.00 0.00 0.00 70 1012.0
20260509122627 38 284 2.0 5.0 0.00 0.00 0.00 69 1011.9
20260509122124 38 326 1.0 5.0 0.00 0.00 0.00 69 1011.8
20260509121621 38 317 3.0 5.0 0.00 0.00 0.00 68 1011.9
20260509121119 38 199 3.0 6.0 0.00 0.00 0.00 69 1011.8
20260509120616 38 354 3.0 6.0 0.00 0.00 0.00 69 1011.7
20260509120115 37 319 2.0 3.0 0.00 0.00 0.00 70 1011.6
20260509115612 37 193 1.0 3.0 0.00 0.00 0.00 71 1011.6
20260509115109 37 322 3.0 6.0 0.00 0.00 0.00 71 1011.4
20260509114607 37 226 1.0 3.0 0.00 0.00 0.00 71 1011.3
20260509114106 37 178 1.0 5.0 0.00 0.00 0.00 71 1011.2
20260509113603 37 79 2.0 5.0 0.00 0.00 0.00 71 1010.9
20260509113101 36 244 2.0 3.0 0.00 0.00 0.00 71 1011.0
20260509112557 36 220 1.0 3.0 0.00 0.00 0.00 71 1010.9
20260509112054 36 226 1.0 6.0 0.00 0.00 0.00 71 1010.8
20260509111551 36 216 4.0 6.0 0.00 0.00 0.00 70 1010.8
20260509111048 36 203 2.0 3.0 0.00 0.00 0.00 70 1010.8
20260509110545 37 316 3.0 5.0 0.00 0.00 0.00 70 1010.5
20260509110042 37 299 3.0 6.0 0.00 0.00 0.00 70 1010.5
20260509105541 37 224 2.0 5.0 0.00 0.00 0.00 69 1010.7
20260509105038 37 238 1.0 6.0 0.00 0.00 0.00 69 1010.6
20260509104535 37 287 3.0 6.0 0.00 0.00 0.00 68 1010.4
20260509104032 37 216 1.0 3.0 0.00 0.00 0.00 68 1010.6
20260509103529 37 354 3.0 6.0 0.00 0.00 0.00 68 1010.4
20260509103027 37 110 1.0 8.0 0.00 0.00 0.00 67 1010.2
20260509102524 37 331 3.0 7.0 0.00 0.00 0.00 67 1010.2
20260509102021 37 230 1.0 5.0 0.00 0.00 0.00 66 1010.2
20260509101517 37 210 1.0 8.0 0.00 0.00 0.00 66 1010.1
20260509101015 37 338 5.0 6.0 0.00 0.00 0.00 66 1010.1
20260509100512 37 222 2.0 6.0 0.00 0.00 0.00 66 1010.3
20260509100009 37 278 2.0 3.0 0.00 0.00 0.00 66 1010.2
20260509095505 37 301 3.0 6.0 0.00 0.00 0.00 66 1010.1
20260509095003 37 211 1.0 3.0 0.00 0.00 0.00 66 1009.9
20260509094459 37 251 2.0 6.0 0.00 0.00 0.00 67 1009.9
20260509093956 36 48 2.0 5.0 0.00 0.00 0.00 67 1010.0
20260509093454 36 296 2.0 3.0 0.00 0.00 0.00 68 1009.9
20260509092951 36 327 3.0 5.0 0.00 0.00 0.00 69 1009.7
20260509092449 36 308 2.0 5.0 0.00 0.00 0.00 69 1009.5
20260509091948 35 222 1.0 2.0 0.00 0.00 0.00 70 1009.7
20260509091444 34 267 0.0 1.0 0.00 0.00 0.00 71 1009.6
20260509090941 34 219 0.0 1.0 0.00 0.00 0.00 71 1009.5
20260509090439 34 211 0.0 0.0 0.00 0.00 0.00 71 1009.4
20260509085936 34 222 0.0 1.0 0.00 0.00 0.00 71 1009.4
20260509085433 34 217 0.0 0.0 0.00 0.00 0.00 71 1009.4
20260509084929 34 217 0.0 1.0 0.00 0.00 0.00 70 1009.2
20260509084426 35 235 1.0 1.0 0.00 0.00 0.00 70 1009.2
20260509083924 35 222 0.0 1.0 0.00 0.00 0.00 70 1009.2
20260509083421 35 222 1.0 1.0 0.00 0.00 0.00 69 1009.3
20260509082917 35 252 1.0 2.0 0.00 0.00 0.00 69 1009.0
20260509082415 35 310 1.0 2.0 0.00 0.00 0.00 69 1009.0
20260509081911 35 322 1.0 2.0 0.00 0.00 0.00 70 1009.1
20260509081409 34 312 1.0 2.0 0.00 0.00 0.00 70 1009.0
20260509080906 35 214 0.0 0.0 0.00 0.00 0.00 70 1008.9
20260509080404 35 214 0.0 1.0 0.00 0.00 0.00 69 1008.8
20260509075902 35 233 0.0 1.0 0.00 0.00 0.00 69 1008.8
20260509075358 35 217 0.0 0.0 0.00 0.00 0.00 68 1008.8
20260509074856 36 272 1.0 1.0 0.00 0.00 0.00 67 1008.6
20260509074354 36 240 1.0 1.0 0.00 0.00 0.00 67 1008.6
20260509073849 36 246 1.0 2.0 0.00 0.00 0.00 66 1008.7
20260509073346 37 229 0.0 5.0 0.00 0.00 0.00 66 1008.8
20260509072843 37 221 0.0 1.0 0.00 0.00 0.00 66 1008.5
20260509072339 37 201 1.0 1.0 0.00 0.00 0.00 65 1008.4
20260509071836 37 222 0.0 1.0 0.00 0.00 0.00 65 1008.4
20260509071333 37 231 0.0 1.0 0.00 0.00 0.00 65 1008.6
20260509070830 37 203 0.0 1.0 0.00 0.00 0.00 65 1008.5
20260509070327 37 232 1.0 2.0 0.00 0.00 0.00 65 1008.4
20260509065823 37 203 0.0 1.0 0.00 0.00 0.00 65 1008.4
20260509065319 37 228 1.0 1.0 0.00 0.00 0.00 65 1008.6
20260509064815 37 267 0.0 1.0 0.00 0.00 0.00 64 1008.4
20260509064313 37 215 0.0 1.0 0.00 0.00 0.00 64 1008.4
20260509063811 37 218 0.0 2.0 0.00 0.00 0.00 64 1008.5
20260509063307 37 211 0.0 1.0 0.00 0.00 0.00 63 1008.1
20260509062804 38 229 1.0 1.0 0.00 0.00 0.00 62 1008.2
20260509062301 38 243 0.0 1.0 0.00 0.00 0.00 61 1008.2
20260509061758 38 48 1.0 2.0 0.00 0.00 0.00 61 1008.3
20260509061256 38 212 0.0 1.0 0.00 0.00 0.00 60 1007.9
20260509060753 39 213 0.0 1.0 0.00 0.00 0.00 60 1008.1
20260509060250 39 213 0.0 2.0 0.00 0.00 0.00 59 1008.1
20260509055745 39 211 0.0 2.0 0.00 0.00 0.00 58 1007.8
20260509055241 39 105 2.0 3.0 0.00 0.00 0.00 58 1008.0
20260509054738 39 184 1.0 2.0 0.00 0.00 0.00 58 1008.0
20260509054235 39 208 1.0 1.0 0.00 0.00 0.00 58 1007.9
20260509053733 39 223 1.0 1.0 0.00 0.00 0.00 58 1007.7
20260509053230 40 68 1.0 2.0 0.00 0.00 0.00 57 1007.8
20260509052728 40 93 1.0 6.0 0.00 0.00 0.00 57 1007.8
20260509052225 40 132 1.0 2.0 0.00 0.00 0.00 57 1007.8
20260509051723 40 204 1.0 3.0 0.00 0.00 0.00 57 1007.7
20260509051221 40 33 1.0 3.0 0.00 0.00 0.00 56 1007.6
20260509050717 41 51 2.0 3.0 0.00 0.00 0.00 55 1007.4
20260509050213 41 24 3.0 6.0 0.00 0.00 0.00 54 1007.5
20260509045711 41 72 1.0 6.0 0.00 0.00 0.00 54 1007.5
20260509045208 41 54 1.0 3.0 0.00 0.00 0.00 54 1007.4
20260509044705 41 3 1.0 5.0 0.00 0.00 0.00 54 1007.5
20260509044203 41 215 2.0 3.0 0.00 0.00 0.00 54 1007.3
20260509043659 41 23 1.0 5.0 0.00 0.00 0.00 54 1007.2
20260509043154 42 91 2.0 8.0 0.00 0.00 0.00 54 1007.3
20260509042651 42 128 3.0 7.0 0.00 0.00 0.00 55 1007.2
20260509042147 42 1 2.0 6.0 0.00 0.00 0.00 55 1007.3
20260509041644 42 93 2.0 5.0 0.00 0.00 0.00 55 1007.0
20260509041141 42 52 5.0 10.0 0.00 0.00 0.00 54 1006.9
20260509040640 42 358 5.0 8.0 0.00 0.00 0.00 54 1006.7
20260509040136 42 19 3.0 6.0 0.00 0.00 0.00 54 1007.0
20260509035633 42 30 4.0 11.0 0.00 0.00 0.00 53 1006.8
20260509035130 43 13 3.0 11.0 0.00 0.00 0.00 53 1006.9
20260509034628 43 161 2.0 6.0 0.00 0.00 0.00 53 1006.9
20260509034125 43 27 5.0 9.0 0.00 0.00 0.00 53 1006.7
20260509033621 43 52 2.0 6.0 0.00 0.00 0.00 52 1006.8
20260509033118 44 13 2.0 5.0 0.00 0.00 0.00 51 1006.5
20260509032616 44 4 1.0 5.0 0.00 0.00 0.00 51 1006.9
20260509032112 44 100 2.0 5.0 0.00 0.00 0.00 50 1006.6
20260509031610 45 357 2.0 3.0 0.00 0.00 0.00 50 1006.4
20260509031108 45 21 3.0 8.0 0.00 0.00 0.00 49 1006.2
20260509030606 45 65 3.0 9.0 0.00 0.00 0.00 48 1006.2
20260509025558 46 41 1.0 5.0 0.00 0.00 0.00 45 1006.3
20260509025054 46 33 1.0 7.0 0.00 0.00 0.00 45 1006.1
20260509024550 47 68 4.0 6.0 0.00 0.00 0.00 44 1005.9
20260509024046 47 71 2.0 7.0 0.00 0.00 0.00 42 1005.7
20260509023544 48 208 1.0 6.0 0.00 0.00 0.00 42 1005.6
20260509023041 48 14 4.0 7.0 0.00 0.00 0.00 41 1005.6
20260509022537 48 348 2.0 3.0 0.00 0.00 0.00 41 1005.5
20260509022035 48 168 0.0 2.0 0.00 0.00 0.00 41 1005.7
20260509021532 49 273 1.0 1.0 0.00 0.00 0.00 40 1005.4
20260509021029 49 150 2.0 8.0 0.00 0.00 0.00 38 1005.3
20260509020527 49 68 4.0 8.0 0.00 0.00 0.00 39 1005.6
20260509020023 49 22 3.0 5.0 0.00 0.00 0.00 38 1005.5
20260509015523 50 241 1.0 5.0 0.00 0.00 0.00 36 1005.2
20260509015020 50 98 1.0 2.0 0.00 0.00 0.00 36 1005.3
20260509014516 50 223 0.0 3.0 0.00 0.00 0.00 36 1004.8
20260509014012 51 15 3.0 5.0 0.00 0.00 0.00 35 1005.1
20260509013510 51 214 2.0 7.0 0.00 0.00 0.00 36 1004.8
20260509013005 51 358 3.0 5.0 0.00 0.00 0.00 37 1004.7
20260509012502 51 242 3.0 11.0 0.00 0.00 0.00 37 1004.7
20260509011959 51 226 4.0 9.0 0.00 0.00 0.00 38 1004.6
20260509011456 52 227 1.0 3.0 0.00 0.00 0.00 36 1004.6
20260509010954 52 195 1.0 6.0 0.00 0.00 0.00 35 1004.5
20260509010451 53 66 2.0 8.0 0.00 0.00 0.00 34 1004.7
20260509005948 53 344 5.0 8.0 0.00 0.00 0.00 33 1004.4
20260509005446 53 2 3.0 5.0 0.00 0.00 0.00 32 1004.2
20260509004946 54 108 3.0 6.0 0.00 0.00 0.00 31 1004.0
20260509004443 54 354 4.0 7.0 0.00 0.00 0.00 31 1003.9
20260509003941 54 332 6.0 7.0 0.00 0.00 0.00 30 1003.8
20260509003438 55 171 1.0 5.0 0.00 0.00 0.00 30 1003.7
20260509002935 55 327 6.0 10.0 0.00 0.00 0.00 29 1004.0
20260509002433 55 358 4.0 6.0 0.00 0.00 0.00 30 1003.8
20260509001930 55 264 3.0 7.0 0.00 0.00 0.00 30 1003.7
20260509001426 55 42 3.0 6.0 0.00 0.00 0.00 30 1003.8
20260509000923 55 302 4.0 6.0 0.00 0.00 0.00 30 1003.7
20260509000421 55 354 8.0 13.0 0.00 0.00 0.00 29 1003.7
20260508235917 55 192 3.0 5.0 0.00 0.00 0.00 28 1003.8
20260508235415 55 225 1.0 6.0 0.00 0.00 0.00 27 1004.1
20260508234911 55 90 5.0 9.0 0.00 0.00 0.00 26 1003.9
20260508234409 56 334 5.0 13.0 0.00 0.00 0.00 26 1004.1
20260508233906 56 320 4.0 9.0 0.00 0.00 0.00 25 1004.1
20260508233406 57 169 3.0 6.0 0.00 0.00 0.00 25 1003.9
20260508232902 58 346 1.0 7.0 0.00 0.00 0.00 25 1003.9
20260508232358 58 216 3.0 6.0 0.00 0.00 0.00 25 1004.0
20260508231856 57 59 3.0 6.0 0.00 0.00 0.00 25 1004.3
20260508231353 57 271 2.0 8.0 0.00 0.00 0.00 24 1004.3
20260508230850 56 5 5.0 6.0 0.00 0.00 0.00 25 1004.4
20260508230346 57 14 5.0 10.0 0.00 0.00 0.00 26 1004.0
20260508225844 58 317 4.0 11.0 0.00 0.00 0.00 26 1004.2
20260508225340 59 76 3.0 9.0 0.00 0.00 0.00 25 1004.3
20260508224838 58 217 4.0 7.0 0.00 0.00 0.00 26 1004.5
20260508224335 58 345 5.0 16.0 0.00 0.00 0.00 26 1004.8
20260508223833 58 340 3.0 11.0 0.00 0.00 0.00 26 1004.5
20260508223330 58 337 5.0 10.0 0.00 0.00 0.00 27 1004.6
20260508222827 58 281 4.0 11.0 0.00 0.00 0.00 29 1004.5
20260508222324 59 0 5.0 11.0 0.00 0.00 0.00 29 1004.6
20260508221821 59 311 5.0 7.0 0.00 0.00 0.00 30 1004.6
20260508221316 58 19 8.0 14.0 0.00 0.00 0.00 29 1004.5
20260508220813 59 260 3.0 11.0 0.00 0.00 0.00 29 1004.4
20260508220310 60 220 1.0 8.0 0.00 0.00 0.00 29 1004.3
20260508215806 59 353 2.0 7.0 0.00 0.00 0.00 29 1004.4
20260508215306 60 230 5.0 9.0 0.00 0.00 0.00 28 1004.8
20260508214800 59 164 7.0 10.0 0.00 0.00 0.00 28 1004.7